Location: Bothwell
(41.7170°N, 112.2589°W)
Time: 01:02:55
(UTC+00:00)

STARLINK-37331 - Pass Details

Date: 19 April 2026
Orbit: 262 x 264 km, 97.3° (Epoch: 18 April)

Event Time Altitude Azimuth Distance (km) Brightness Sun altitude
Rises 04:05:48 0° 12° (NNE) 1,898 5.7 -19.6°
Reaches altitude 10° 04:07:37 10° 12° (NNE) 1,084 4.4 -19.9°
Enters shadow 04:07:45 11° 12° (NNE) 1,029 4.3 -19.9°
